Tracking 31032 objects as of 13-Jul-2025
HD Live streaming from Space Station
objects crossing your sky now

STARLINK-34550

Track STARLINK-34550 now!
10-day predictions
STARLINK-34550 is classified as:


NORAD ID: 64683
Int'l Code: 2025-139V
Perigee: 376.7 km
Apogee: 378.4 km
Inclination: 53.2 °
Period: 92.0 minutes
Semi major axis: 6748 km
RCS: Unknown
Launch date: June 28, 2025
Source: United States (US)
Launch site: AIR FORCE EASTERN TEST RANGE (AFETR)
Your satellite tracking list
Your tracking list is empty




NASA's NSSDC Master Catalog

Two Line Element Set (TLE):
1 64683U 25139V   25194.78955918 -.00335074  00000-0 -33497-2 0  9992
2 64683  53.1597 161.2389 0001248 230.0272 130.0634 15.65970222  3638
Source of the keplerian elements: AFSPC